Weather History for KL35 - October, 2014

Change the Weather History Date:

Wednesday, October 8, 2014

  Actual Average (KBUO) Record (KBUO)
Temperature  
Mean Temperature 48 °F -  
Max Temperature 64 °F 79 °F 102 °F (1996)
Min Temperature 33 °F 52 °F 51 °F (2000)
Degree Days  
Heating Degree Days 16    
Moisture  
Dew Point 31 °F    
Average Humidity 52    
Maximum Humidity 87    
Minimum Humidity 27    
Precipitation  
Precipitation 0.00 in - - ()
Sea Level Pressure  
Sea Level Pressure 30.16 in    
Wind  
Wind Speed 2 mph (NNE)    
Max Wind Speed 12 mph    
Max Gust Speed 18 mph    
Visibility 10 miles    
Events      
Averages and records for this station are not official NWS values.
T = Trace of Precipitation, MM = Missing Value Source: NWS Daily Summary

Daily Weather History Graph

Daily Weather History Graph

Search for Another Location

Airport or City:

Trip Planner

Search our weather history database for the weather conditions in past years. The results will help you decide how hot, cold, wet, or windy it might be!

Date:

Astronomy

Oct. 08, 2014 Rise Set
Actual Time 6:47 AM PDT 6:22 PM PDT
Civil Twilight 6:22 AM PDT 6:47 PM PDT
Nautical Twilight 5:53 AM PDT 7:16 PM PDT
Astronomical Twilight 5:24 AM PDT 7:45 PM PDT
Moon 6:42 PM PDT (10/8) 6:57 AM PDT (10/8)
Length of Visible Light 12h 24m
Length of Day
11h 34m
Full, 100% of the Moon is Illuminated
Oct 8
Full
Oct 15
Last Quarter
Oct 23
New
Oct 30
First Quarter
Nov 6
Full

Hourly Weather History & Observations

Time (PDT) Temp. Dew Point Humidity Pressure Visibility Wind Dir Wind Speed Gust Speed Precip Events Conditions
12:15 AM 41.0 °F 28.4 °F 61% 30.20 in 10.0 mi Calm Calm - N/A   Clear
12:35 AM 39.2 °F 28.4 °F 65% 30.19 in 10.0 mi Calm Calm - N/A   Clear
12:55 AM 39.2 °F 28.4 °F 65% 30.19 in 10.0 mi Calm Calm - N/A   Clear
1:15 AM 37.4 °F 28.4 °F 70% 30.19 in 10.0 mi Calm Calm - N/A   Clear
1:35 AM 37.4 °F 28.4 °F 70% 30.19 in 10.0 mi Calm Calm - N/A   Clear
1:55 AM 37.4 °F 28.4 °F 70% 30.19 in 10.0 mi Calm Calm - N/A   Clear
2:15 AM 37.4 °F 28.4 °F 70% 30.19 in 10.0 mi Calm Calm - N/A   Clear
2:35 AM 37.4 °F 28.4 °F 70% 30.18 in 10.0 mi Calm Calm - N/A   Clear
2:55 AM 35.6 °F 28.4 °F 75% 30.17 in 10.0 mi Calm Calm - N/A   Clear
3:15 AM 35.6 °F 28.4 °F 75% 30.17 in 10.0 mi Calm Calm - N/A   Clear
3:35 AM 35.6 °F 28.4 °F 75% 30.17 in 10.0 mi Calm Calm - N/A   Clear
3:55 AM 35.6 °F 28.4 °F 75% 30.16 in 10.0 mi Calm Calm - N/A   Clear
4:15 AM 35.6 °F 28.4 °F 75% 30.16 in 10.0 mi Calm Calm - N/A   Clear
4:55 AM 35.6 °F 28.4 °F 75% 30.16 in 10.0 mi Calm Calm - N/A   Clear
5:15 AM 35.6 °F 28.4 °F 75% 30.16 in 10.0 mi Calm Calm - N/A   Clear
5:35 AM 35.6 °F 28.4 °F 75% 30.16 in 10.0 mi Calm Calm - N/A   Clear
5:55 AM 33.8 °F 30.2 °F 87% 30.16 in 10.0 mi Calm Calm - N/A   Clear
6:15 AM 33.8 °F 28.4 °F 81% 30.16 in 10.0 mi Calm Calm - N/A   Clear
6:35 AM 33.8 °F 30.2 °F 87% 30.16 in 10.0 mi Calm Calm - N/A   Clear
6:55 AM 33.8 °F 30.2 °F 87% 30.16 in 10.0 mi Calm Calm - N/A   Clear
7:15 AM 33.8 °F 30.2 °F 87% 30.17 in 10.0 mi Calm Calm - N/A   Clear
7:35 AM 35.6 °F 30.2 °F 81% 30.17 in 10.0 mi Calm Calm - N/A   Clear
7:55 AM 39.2 °F 32.0 °F 75% 30.17 in 10.0 mi Calm Calm - N/A   Clear
8:15 AM 42.8 °F 33.8 °F 70% 30.18 in 10.0 mi Calm Calm - N/A   Clear
8:35 AM 46.4 °F 33.8 °F 62% 30.18 in 10.0 mi Calm Calm - N/A   Clear
8:55 AM 51.8 °F 33.8 °F 50% 30.18 in 10.0 mi Calm Calm - N/A   Clear
9:15 AM 55.4 °F 33.8 °F 44% 30.17 in 10.0 mi Calm Calm - N/A   Clear
9:35 AM 59.0 °F 32.0 °F 36% 30.18 in 10.0 mi Calm Calm - N/A   Clear
9:55 AM 62.6 °F 30.2 °F 30% 30.18 in 10.0 mi East 9.2 mph - N/A   Clear
10:15 AM 62.6 °F 28.4 °F 27% 30.18 in 10.0 mi ENE 9.2 mph - N/A   Clear
10:35 AM 62.6 °F 30.2 °F 30% 30.18 in 10.0 mi East 6.9 mph - N/A   Clear
10:55 AM 64.4 °F 30.2 °F 28% 30.18 in 10.0 mi NE 9.2 mph - N/A   Clear
11:15 AM 64.4 °F 30.2 °F 28% 30.18 in 10.0 mi ENE 11.5 mph - N/A   Clear
11:55 AM 64.4 °F 33.8 °F 32% 30.17 in 10.0 mi ENE 11.5 mph 16.1 mph N/A   Clear
12:15 PM 64.4 °F 32.0 °F 30% 30.17 in 10.0 mi East 9.2 mph - N/A   Clear
12:35 PM 64.4 °F 33.8 °F 32% 30.16 in 10.0 mi East 10.4 mph - N/A   Clear
12:55 PM 64.4 °F 32.0 °F 30% 30.16 in 10.0 mi ENE 10.4 mph 16.1 mph N/A   Clear
1:15 PM 64.4 °F 30.2 °F 28% 30.16 in 10.0 mi NNE 5.8 mph - N/A   Scattered Clouds
1:35 PM 64.4 °F 32.0 °F 30% 30.15 in 10.0 mi NNE 9.2 mph 16.1 mph N/A   Overcast
1:55 PM 64.4 °F 32.0 °F 30% 30.14 in 10.0 mi NNW 6.9 mph - N/A   Mostly Cloudy
2:15 PM 64.4 °F 30.2 °F 28% 30.14 in 10.0 mi North 5.8 mph - N/A   Scattered Clouds
2:35 PM 64.4 °F 30.2 °F 28% 30.14 in 10.0 mi North 4.6 mph 18.4 mph N/A   Clear
2:55 PM 64.4 °F 32.0 °F 30% 30.13 in 10.0 mi NNE 5.8 mph - N/A   Scattered Clouds
3:15 PM 64.4 °F 32.0 °F 30% 30.13 in 10.0 mi NNW 6.9 mph - N/A   Mostly Cloudy
3:35 PM 62.6 °F 33.8 °F 34% 30.13 in 10.0 mi North 6.9 mph - N/A   Overcast
3:55 PM 62.6 °F 33.8 °F 34% 30.13 in 10.0 mi NW 9.2 mph - N/A   Overcast
4:15 PM 62.6 °F 33.8 °F 34% 30.13 in 10.0 mi North 9.2 mph 16.1 mph N/A   Mostly Cloudy
4:35 PM 64.4 °F 33.8 °F 32% 30.12 in 10.0 mi North 6.9 mph - N/A   Mostly Cloudy
4:55 PM 64.4 °F 33.8 °F 32% 30.12 in 10.0 mi North 6.9 mph - N/A   Mostly Cloudy
5:15 PM 64.4 °F 32.0 °F 30% 30.12 in 10.0 mi NNW 3.5 mph - N/A   Mostly Cloudy
5:35 PM 62.6 °F 33.8 °F 34% 30.12 in 10.0 mi NNW 6.9 mph - N/A   Scattered Clouds
5:55 PM 62.6 °F 33.8 °F 34% 30.12 in 10.0 mi NNW 4.6 mph - N/A   Clear
6:15 PM 62.6 °F 32.0 °F 32% 30.12 in 10.0 mi West 5.8 mph - N/A   Clear
6:35 PM 60.8 °F 32.0 °F 34% 30.13 in 10.0 mi NNW 3.5 mph - N/A   Clear
6:55 PM 59.0 °F 35.6 °F 42% 30.13 in 10.0 mi WSW 3.5 mph - N/A   Clear
7:15 PM 55.4 °F 35.6 °F 47% 30.14 in 10.0 mi West 4.6 mph - N/A   Clear
7:35 PM 55.4 °F 35.6 °F 47% 30.14 in 10.0 mi Calm Calm - N/A   Clear
7:55 PM 51.8 °F 32.0 °F 47% 30.15 in 10.0 mi Calm Calm - N/A   Clear
8:15 PM 50.0 °F 32.0 °F 50% 30.15 in 10.0 mi Calm Calm - N/A   Clear
8:35 PM 48.2 °F 32.0 °F 54% 30.15 in 10.0 mi Calm Calm - N/A   Clear
8:55 PM 46.4 °F 32.0 °F 57% 30.16 in 10.0 mi Calm Calm - N/A   Clear
9:15 PM 46.4 °F 30.2 °F 53% 30.16 in 10.0 mi Calm Calm - N/A   Clear
9:35 PM 44.6 °F 32.0 °F 61% 30.16 in 10.0 mi Calm Calm - N/A   Clear
9:55 PM 44.6 °F 32.0 °F 61% 30.16 in 10.0 mi Calm Calm - N/A   Clear
10:15 PM 44.6 °F 32.0 °F 61% 30.16 in 10.0 mi Calm Calm - N/A   Clear
10:35 PM 44.6 °F 30.2 °F 57% 30.17 in 10.0 mi Calm Calm - N/A   Clear
10:55 PM 42.8 °F 30.2 °F 61% 30.17 in 10.0 mi Calm Calm - N/A   Clear
11:15 PM 42.8 °F 28.4 °F 57% 30.17 in 10.0 mi Calm Calm - N/A   Clear
11:35 PM 41.0 °F 28.4 °F 61% 30.16 in 10.0 mi Calm Calm - N/A   Clear
11:55 PM 42.8 °F 30.2 °F 61% 30.16 in 10.0 mi Calm Calm - N/A   Clear